Regional Weather Roundup
Issued by NWS

Home | Current Version | Previous Version | Graphics & Text | Print | Product List | Glossary On
Versions: 1 2 3 4 5 6 7 8 9 10 11 12 13 14 15 16 17 18 19 20 21 22 23 24 25 26 27
000
ASUS45 KBOU 281307
RWRCO

WEATHER ROUNDUP FOR COLORADO
NATIONAL WEATHER SERVICE DENVER/BOULDER CO
700 AM MDT SUN AUG 28 2016

NOTE: "FAIR" INDICATES FEW OR NO CLOUDS BELOW 12000 FEET WITH NO
SIGNIFICANT WEATHER AND/OR OBSTRUCTIONS TO VISIBILITY.

COZ001>005-013-030-031-281400-
...NORTHWEST COLORADO...

CITY           SKY/WX    TMP DP  RH WIND       PRES   REMARKS
CRAIG          FAIR      40  36  86 CALM      30.30R
HAYDEN         FAIR      46  30  53 E12       30.32R
MEEKER         FAIR      43  40  89 NE5       30.32R
MOUNT WERNER   NOT AVBL
STEAMBOAT SPGS FAIR      40  34  78 CALM      30.34R
WALDEN         FAIR      34  30  86 SE3       30.41R
$$

COZ006>008-011-281400-
...WEST CENTRAL VALLEYS...

CITY           SKY/WX    TMP DP  RH WIND       PRES   REMARKS
GRAND JUNCTION FAIR      60  49  66 SE7       30.23R
MONTROSE       CLOUDY    56  45  66 CALM      30.30R
EAGLE          MOCLDY    50  43  76 CALM      30.35R
RIFLE          CLOUDY    54  51  90 CALM      30.28R
DELTA          NOT AVBL
NUCLA          CLOUDY   N/A N/A N/A E5        30.34R
$$

COZ017>023-064>068-281400-
...SOUTHWEST COLORADO...

CITY           SKY/WX    TMP DP  RH WIND       PRES   REMARKS
DURANGO        FAIR      43  40  89 CALM      30.33R
CORTEZ         CLOUDY    50  48  93 CALM      30.29R
PAGOSA SPRINGS FAIR      41  41  99 CALM      30.39R
TELLURIDE      CLOUDY    45  43  92 CALM      30.47R
WOLF CREEK PAS FAIR      36  34  93 SW10      30.60R
$$

COZ009-010-012-014-032>034-037-058>063-281400-
...CENTRAL COLORADO...

CITY           SKY/WX    TMP DP  RH WIND       PRES   REMARKS
ASPEN          FAIR      46  42  86 SW7       30.37R
BUENA VISTA    MOCLDY    47  42  84 W3        30.38R
COPPER MTN     CLOUDY    45  32  61 CALM      30.60R
BERTHOUD PASS  CLOUDY    36  23  60 N9        30.63R
COTTONWOOD PAS MOCLDY    52  36  54 CALM      30.47R
GUNNISON       MOCLDY    46  41  81 N3        30.41R
KREMMLING      FAIR      41  36  81 CALM      30.40R
LEADVILLE      MOCLDY    41  36  82 CALM      30.46R
MONARCH PASS   CLOUDY    39  34  81 SW6       30.68R
SALIDA         CLOUDY    53  42  65 NW3       30.43R
SUNLIGHT       CLOUDY    46  37  71 SE5       30.56R
WILKERSON PASS CLOUDY    45  32  61 N8        30.57R
$$

COZ069>075-281400-
...SAN LUIS VALLEY/SANGRE DE CRISTO MOUNTAINS...

CITY           SKY/WX    TMP DP  RH WIND       PRES   REMARKS
ALAMOSA        FAIR      34  32  92 CALM      30.38R
LA VETA PASS   FAIR      43  36  75 SW7       30.48R
SAGUACHE       FAIR      45  39  81 NW7       30.39R
$$

COZ035-036-038>040-281400-
...NORTHERN COLORADO FRONT RANGE...

CITY           SKY/WX    TMP DP  RH WIND       PRES   REMARKS
DENVER INTL AP MOCLDY    62  44  51 W7        30.17R
DMNS CITY PARK   N/A     61  45  56 SE6       30.18R
AURORA         MOCLDY    60  46  57 CALM      30.21R
FRONT RANGE AP MOCLDY    64  45  48 SW6       30.18
ERIE MUNI ARPT NOT AVBL
BOULDER MUN AP FAIR      63  43  48 CALM      30.15R
CENTENNIAL     MOCLDY    62  42  47 S5        30.21R
BROOMFIELD     MOCLDY    61  43  51 W3        30.19R
FORT COLLINS   FAIR      57  37  47 NE6       30.16R
LONGMONT       FAIR      59  48  67 CALM      30.17R
$$

COZ041-046-047-076>085-087-088-281400-
...PIKES PEAK/PALMER DIVIDE AND SOUTHERN FOOTHILLS...

CITY           SKY/WX    TMP DP  RH WIND       PRES   REMARKS
COLO. SPRINGS  MOCLDY    58  51  78 N6        30.25R
A. F. ACADEMY  CLOUDY    55  49  83 NE3       30.26R
SCHRIEVER AFB  NOT AVBL
ELLICOTT       NOT AVBL
FALCON         MOCLDY    56  53  90 NW5       30.28S
FORT CARSON    MOCLDY    57  51  81 NW6       30.22R
LIMON          FAIR      49  49 100 N3        30.20R
MONUMENT HILL  CLOUDY    55  45  67 S8        30.30R
TRINIDAD       FAIR      60  49  66 W10       30.20F
$$

COZ042>045-048>051-090-091-281400-
...NORTHEAST COLORADO...

CITY           SKY/WX    TMP DP  RH WIND       PRES   REMARKS
GREELEY ARPT   FAIR      54  46  76 N6        30.15R
AKRON          FAIR      62  53  72 S13       30.14R
BURLINGTON     FAIR      62  52  69 SW15      30.13R
WRAY           FAIR     N/A N/A N/A CALM      30.11S
STERLING       FAIR      50  46  87 CALM      30.11R
HOLYOKE        FAIR      59  55  88 SW5       30.11S
FORT MORGAN    FAIR      55  52  88 CALM      30.13R
$$

COZ086-089-092>099-281400-
...SOUTHEAST COLORADO...

CITY           SKY/WX    TMP DP  RH WIND       PRES   REMARKS
PUEBLO         FAIR      61  56  83 N5        30.15R
LA JUNTA       FAIR      65  55  70 CALM      30.11S
LAMAR          FAIR      58  55  90 E5        30.10S
SPRINGFIELD      N/A     58  57  97 S9        30.15S
$$




USA.gov is the U.S. government's official web portal to all federal, state and local government web resources and services.